Home > Weather > San Bernardino > Past weeks

Flag for USA Weather for the Past 2 Weeks in San Bernardino, California, USA

Now
56 °F

Clear.


Feels Like: 56 °F
Forecast: 53 / 80 °F
Wind: No wind

Location: Riverside Municipal Airport

Current Time: May 2, 2016 at 4:39:56 AM

Latest Report: May 2, 2016 at 3:53 AM


Visibility: 10 mi

Pressure: 29.96 "Hg

Humidity: 81%

Dew Point: 50 °F

Location of San BernardinoLocation

Historic Weather in San Bernardino — Graph

°F

San Bernardino Temperature Yesterday

Maximum temperature yesterday: 77 °F (at 2:53 PM)
Minimum temperature yesterday: 52 °F (at 4:53 AM)
Average temperature yesterday: 63 °F

High & Low Weather Summary for the Past Weeks

 TemperatureHumidityPressure
High92 °F (Apr 18, 2:53 PM)90% (Apr 30, 5:53 AM)30.04 "Hg (Apr 30, 5:53 AM)
Low47 °F (Apr 26, 4:53 AM)5% (Apr 17, 1:53 PM)29.70 "Hg (Apr 27, 11:53 PM)
Average66 °F46%29.88 "Hg
* Reported Apr 17 2:53 AM — May 2 2:53 AM, San Bernardino, Weather by CustomWeather, © 2016

Note: Actual official high and low records may vary slightly from our data, if they occured in-between our weather recording intervals... More about our weather records

Advertising

San Bernardino Weather History for the Previous 24 Hours

Scroll right to see more
 ConditionsComfort  
Time TempWeatherWind HumidityBarometerVisibility
2:53 AM
Mon, May 2
56 °FClear.3 mph81%29.96 "Hg9 mi
1:53 AM56 °FClear.3 mph84%29.97 "Hg10 mi
12:53 AM57 °FClear.5 mph81%29.98 "Hg9 mi
11:53 PM
Sun, May 1
58 °FClear.3 mph78%29.98 "Hg10 mi
10:53 PM59 °FClear.6 mph75%29.97 "Hg10 mi
9:53 PM61 °FClear.No wind70%29.96 "Hg10 mi
8:53 PM62 °FClear.3 mph67%29.93 "Hg10 mi
7:53 PM64 °FSunny.7 mph63%29.89 "Hg10 mi
6:53 PM68 °FScattered clouds.13 mph55%29.86 "Hg10 mi
5:53 PM74 °FScattered clouds.15 mph43%29.85 "Hg10 mi
4:53 PM76 °FScattered clouds.7 mph40%29.84 "Hg10 mi
3:53 PM76 °FSunny.7 mph40%29.85 "Hg10 mi
2:53 PM77 °FSunny.9 mph37%29.85 "Hg10 mi
1:53 PM75 °FSunny.10 mph39%29.85 "Hg10 mi
12:53 PM73 °FScattered clouds.6 mph38%29.86 "Hg10 mi
11:53 AM68 °FSunny.6 mph45%29.88 "Hg10 mi
10:53 AM66 °FSunny.3 mph50%29.89 "Hg10 mi
9:53 AM64 °FSunny.3 mph56%29.89 "Hg10 mi
8:53 AM60 °FSunny.No wind65%29.88 "Hg10 mi
7:53 AM58 °FSunny.No wind70%29.88 "Hg10 mi
6:53 AM54 °FClear.No wind80%29.87 "Hg10 mi
5:53 AM53 °FClear.No wind83%29.83 "Hg10 mi
4:53 AM52 °FPassing clouds.No wind83%29.83 "Hg10 mi
Weather by CustomWeather, © 2016

See weather overviewHow to use our weather pages